CW5575 Weather Reports


time (UTC)temp
C
wind
direction
speed
KPH
gust
KPH
rain 1hr
cm
rain 24hr
cm
rain mn
cm
humidity
%
barometer
mb
20260509101524 21 266 0.0 4.8 0.00 0.00 0.00 90 1009.6
20260509101008 21 304 0.0 4.8 0.00 0.00 0.00 90 1009.5
20260509100507 21 250 0.0 3.2 0.00 0.00 0.00 90 1009.5
20260509100024 21 233 0.0 6.4 0.00 0.00 0.00 90 1009.1
20260509095507 21 204 1.6 6.4 0.00 0.00 0.00 90 1009.1
20260509095007 20 260 3.2 11.3 0.00 0.00 0.00 90 1009.0
20260509094526 20 225 3.2 11.3 0.00 0.00 0.00 90 1008.5
20260509094009 20 241 3.2 14.5 0.00 0.00 0.00 90 1007.9
20260509093508 20 155 1.6 14.5 0.00 0.00 0.00 90 1008.0
20260509093010 20 175 6.4 14.5 0.00 0.00 0.00 90 1007.9
20260509092503 20 115 3.2 14.5 0.00 0.00 0.00 90 1008.0
20260509092003 20 199 4.8 14.5 0.00 0.00 0.00 90 1007.7
20260509091507 20 184 4.8 14.5 0.00 0.00 0.00 90 1007.6
20260509091003 20 91 3.2 16.1 0.00 0.00 0.00 89 1007.6
20260509090504 20 175 4.8 16.1 0.00 0.00 0.00 89 1007.8
20260509090009 20 163 4.8 12.9 0.00 0.00 0.00 89 1007.9
20260509085505 20 179 4.8 12.9 0.00 0.00 0.00 89 1008.0
20260509085004 20 202 3.2 12.9 0.00 0.00 0.00 89 1008.2
20260509084515 20 144 4.8 8.0 0.00 0.00 0.00 89 1008.6
20260509084002 20 156 3.2 8.0 0.00 0.00 0.00 89 1009.1
20260509083503 20 148 1.6 9.7 0.00 0.00 0.00 89 1009.5
20260509083004 20 149 1.6 9.7 0.00 0.00 0.00 89 1009.5
20260509082502 20 170 1.6 8.0 0.00 0.00 0.00 89 1009.8
20260509082002 20 227 1.6 4.8 0.00 0.00 0.00 89 1010.1
20260509081508 20 155 1.6 4.8 0.00 0.00 0.00 89 1010.2
20260509081006 20 126 1.6 3.2 0.00 0.00 0.00 89 1010.3
20260509080504 20 148 0.0 3.2 0.00 0.00 0.00 89 1010.5
20260509080008 20 186 0.0 3.2 0.00 0.00 0.00 89 1010.7
20260509075506 20 169 0.0 3.2 0.00 0.00 0.00 89 1010.7
20260509075002 20 171 0.0 3.2 0.00 0.00 0.00 90 1010.8
20260509074512 20 229 0.0 3.2 0.00 0.00 0.00 90 1010.9
20260509074003 20 229 0.0 3.2 0.00 0.00 0.00 90 1011.1
20260509073507 20 229 0.0 3.2 0.00 0.00 0.00 90 1011.2
20260509073018 20 211 1.6 3.2 0.00 0.00 0.00 90 1011.2
20260509072503 20 211 0.0 3.2 0.00 0.00 0.00 90 1011.3
20260509072002 20 211 0.0 0.0 0.00 0.00 0.00 90 1011.3
20260509071504 19 211 0.0 3.2 0.00 0.00 0.00 89 1011.2
20260509071003 19 211 0.0 3.2 0.00 0.00 0.00 89 1011.2
20260509070504 19 211 0.0 3.2 0.00 0.00 0.00 89 1010.9
20260509070005 19 211 0.0 3.2 0.00 0.00 0.00 88 1010.4
20260509065504 20 211 0.0 3.2 0.00 0.00 0.00 88 1010.3
20260509065004 20 242 0.0 3.2 0.00 0.00 0.00 88 1010.4
20260509064510 20 242 0.0 0.0 0.00 0.00 0.00 87 1010.6
20260509064003 20 242 0.0 3.2 0.00 0.00 0.00 87 1010.7
20260509063505 20 242 0.0 3.2 0.00 0.00 0.00 87 1010.6
20260509063016 20 227 0.0 3.2 0.00 0.00 0.00 87 1010.4
20260509062508 20 221 0.0 1.6 0.00 0.00 0.00 86 1010.6
20260509062008 20 221 0.0 3.2 0.00 0.00 0.00 86 1011.0
20260509061519 20 221 0.0 3.2 0.00 0.00 0.00 85 1011.1
20260509061005 21 221 0.0 3.2 0.00 0.00 0.00 85 1011.1
20260509060505 21 221 0.0 3.2 0.00 0.00 0.00 84 1011.2
20260509060007 21 221 0.0 3.2 0.00 0.00 0.00 84 1011.3
20260509055504 21 221 0.0 4.8 0.00 0.00 0.00 84 1010.9
20260509055005 21 209 1.6 4.8 0.00 0.00 0.00 84 1011.0
20260509054520 21 58 0.0 3.2 0.00 0.00 0.00 84 1011.4
20260509054004 21 58 0.0 3.2 0.00 0.00 0.00 84 1011.6
20260509053504 21 58 0.0 4.8 0.00 0.00 0.00 84 1011.8
20260509053028 21 58 1.6 4.8 0.00 0.00 0.00 83 1011.8
20260509052505 21 42 1.6 3.2 0.00 0.00 0.00 83 1011.5
20260509052011 21 135 1.6 8.0 0.00 0.00 0.00 83 1011.0
20260509051518 21 190 1.6 8.0 0.00 0.00 0.00 83 1010.7
20260509051007 21 236 1.6 4.8 0.00 0.00 0.00 82 1010.8
20260509050507 21 124 1.6 6.4 0.00 0.00 0.00 82 1010.9
20260509050015 21 184 1.6 9.7 0.00 0.00 0.00 83 1010.5
20260509045502 21 218 3.2 9.7 0.00 0.00 0.00 83 1010.4
20260509045003 21 215 1.6 6.4 0.00 0.00 0.00 83 1010.4
20260509044514 21 232 1.6 4.8 0.00 0.00 0.00 83 1010.2
20260509044004 21 184 1.6 3.2 0.00 0.00 0.00 83 1010.1
20260509043504 21 192 1.6 3.2 0.00 0.00 0.00 83 1010.4
20260509043009 21 127 0.0 3.2 0.00 0.00 0.00 82 1010.7
20260509042504 21 127 0.0 3.2 0.00 0.00 0.00 82 1010.8
20260509042008 21 127 0.0 0.0 0.00 0.00 0.00 82 1011.0
20260509041514 21 127 0.0 3.2 0.00 0.00 0.00 81 1011.2
20260509041006 21 127 0.0 3.2 0.00 0.00 0.00 81 1011.3
20260509040508 21 127 0.0 3.2 0.00 0.00 0.00 81 1011.4
20260509040020 21 127 0.0 3.2 0.00 0.00 0.00 80 1011.3
20260509035506 21 127 0.0 3.2 0.00 0.00 0.00 80 1011.2
20260509035011 21 127 0.0 3.2 0.00 0.00 0.00 80 1011.2
20260509034504 21 127 0.0 1.6 0.00 0.00 0.00 80 1011.0
20260509034004 21 127 0.0 1.6 0.00 0.00 0.00 80 1010.8
20260509033503 21 127 0.0 3.2 0.00 0.00 0.00 80 1010.8
20260509033008 21 127 0.0 3.2 0.00 0.00 0.00 79 1010.7
20260509032504 21 127 0.0 3.2 0.00 0.00 0.00 79 1010.7
20260509032004 21 127 0.0 3.2 0.00 0.00 0.00 79 1010.6
20260509031516 21 120 1.6 3.2 0.00 0.00 0.00 79 1010.6
20260509031004 21 147 0.0 3.2 0.00 0.00 0.00 79 1010.7
20260509030508 21 150 0.0 3.2 0.00 0.00 0.00 78 1010.6
20260509030015 21 132 1.6 3.2 0.00 0.00 0.00 78 1010.4
20260509025503 21 126 0.0 3.2 0.00 0.00 0.00 78 1010.3
20260509025003 21 202 1.6 4.8 0.00 0.00 0.00 78 1010.2
20260509024504 22 152 1.6 4.8 0.00 0.00 0.00 78 1010.2
20260509024003 22 173 0.0 3.2 0.00 0.00 0.00 78 1010.1
20260509023503 21 215 0.0 3.2 0.00 0.00 0.00 78 1009.9
20260509023016 21 53 0.0 3.2 0.00 0.00 0.00 78 1009.8
20260509022504 21 126 1.6 3.2 0.00 0.00 0.00 78 1009.8
20260509022002 21 171 0.0 3.2 0.00 0.00 0.00 79 1009.6
20260509021513 21 171 0.0 3.2 0.00 0.00 0.00 79 1009.7
20260509021005 21 171 0.0 1.6 0.00 0.00 0.00 79 1009.8
20260509020503 21 171 0.0 1.6 0.00 0.00 0.00 79 1009.8
20260509020015 21 171 0.0 1.6 0.00 0.00 0.00 79 1009.7
20260509015507 21 228 0.0 3.2 0.00 0.00 0.00 79 1009.8
20260509015004 21 228 0.0 3.2 0.00 0.00 0.00 79 1009.8
20260509014503 21 273 0.0 3.2 0.00 0.00 0.00 79 1009.7
20260509014003 21 273 0.0 3.2 0.00 0.00 0.00 79 1009.6
20260509013503 21 273 0.0 3.2 0.00 0.00 0.00 78 1009.6
20260509013007 22 273 0.0 3.2 0.00 0.00 0.00 78 1009.6
20260509012503 22 273 0.0 3.2 0.00 0.00 0.00 77 1009.5
20260509012003 22 273 0.0 3.2 0.00 0.00 0.00 77 1009.4
20260509011508 22 288 0.0 3.2 0.00 0.00 0.00 76 1009.4
20260509011002 22 288 0.0 3.2 0.00 0.00 0.00 76 1009.2
20260509010507 22 214 0.0 3.2 0.00 0.00 0.00 76 1009.1
20260509010017 22 234 0.0 4.8 0.00 0.00 0.00 75 1008.9
20260509005507 22 246 1.6 4.8 0.00 0.00 0.00 74 1008.9
20260509005006 22 252 0.0 8.0 0.00 0.00 0.00 74 1008.8
20260509004518 22 216 1.6 8.0 0.00 0.00 0.00 74 1008.8
20260509004007 22 186 3.2 8.0 0.00 0.00 0.00 74 1008.9
20260509003504 22 247 1.6 8.0 0.00 0.00 0.00 74 1008.9
20260509003004 22 233 1.6 8.0 0.00 0.00 0.00 74 1008.8
20260509002503 22 170 3.2 8.0 0.00 0.00 0.00 74 1008.7
20260509002004 22 198 1.6 6.4 0.00 0.00 0.00 73 1008.9
20260509001508 22 167 0.0 4.8 0.00 0.00 0.00 73 1009.0
20260509001004 22 179 0.0 6.4 0.00 0.00 0.00 73 1009.1
20260509000507 22 203 1.6 6.4 0.00 0.00 0.00 72 1009.1
20260509000014 22 191 0.0 6.4 0.00 0.00 0.00 72 1009.2
20260508235507 23 241 1.6 11.3 0.00 0.00 0.00 72 1009.2
20260508235008 23 194 1.6 11.3 0.00 0.00 0.00 71 1009.3
20260508234521 23 163 1.6 6.4 0.00 0.00 0.00 71 1009.4
20260508234008 23 217 1.6 6.4 0.00 0.00 0.00 71 1009.3
20260508233507 23 179 1.6 6.4 0.00 0.00 0.00 72 1009.4
20260508233023 23 159 0.0 6.4 0.00 0.00 0.00 71 1009.4
20260508232508 23 159 1.6 4.8 0.00 0.00 0.00 71 1009.4
20260508232003 23 198 0.0 8.0 0.00 0.00 0.00 70 1009.4
20260508231504 23 134 1.6 8.0 0.00 0.00 0.00 70 1009.4
20260508231004 23 165 1.6 6.4 0.00 0.00 0.00 70 1009.5
20260508230504 23 173 0.0 11.3 0.00 0.00 0.00 71 1009.6
20260508230010 23 197 4.8 11.3 0.00 0.00 0.00 70 1009.6
20260508225506 23 267 3.2 11.3 0.00 0.00 0.00 70 1009.5
20260508225004 23 256 3.2 14.5 0.00 0.00 0.00 70 1009.6
20260508224516 23 233 6.4 19.3 0.00 0.00 0.00 68 1009.6
20260508224006 23 207 8.0 19.3 0.00 0.00 0.00 68 1009.6
20260508223509 23 196 6.4 14.5 0.00 0.00 0.00 69 1009.5
20260508223022 23 221 6.4 14.5 0.00 0.00 0.00 70 1009.5
20260508222505 23 227 1.6 14.5 0.00 0.00 0.00 70 1009.5
20260508222009 23 230 4.8 16.1 0.00 0.00 0.00 70 1009.5
20260508221523 23 186 6.4 16.1 0.00 0.00 0.00 69 1009.5
20260508221002 24 226 4.8 12.9 0.00 0.00 0.00 67 1009.4
20260508220501 24 258 4.8 11.3 0.00 0.00 0.00 68 1009.3
20260508220010 24 259 4.8 12.9 0.00 0.00 0.00 67 1009.3
20260508215509 25 246 4.8 14.5 0.00 0.00 0.00 69 1009.2
20260508215005 25 218 3.2 14.5 0.00 0.00 0.00 70 1009.1
20260508214515 23 205 4.8 12.9 0.00 0.00 0.00 72 1009.1
20260508214004 23 217 3.2 11.3 0.00 0.00 0.00 73 1009.0
20260508213505 23 187 3.2 6.4 0.00 0.00 0.00 74 1009.4
20260508213018 22 286 1.6 6.4 0.00 0.00 0.00 79 1009.2
20260508212512 22 171 3.2 8.0 0.00 0.00 0.00 77 1009.1
20260508212010 22 63 1.6 12.9 0.00 0.00 0.00 76 1010.1
20260508211528 22 9 4.8 12.9 0.00 0.00 0.00 73 1009.0
20260508211009 22 197 6.4 12.9 0.00 0.00 0.00 73 1010.7
20260508210506 22 226 4.8 9.7 0.00 0.00 0.00 71 1010.5
20260508210028 23 209 1.6 9.7 0.00 0.00 0.00 71 1010.6
20260508205503 23 242 1.6 8.0 0.00 0.00 0.00 70 1011.1
20260508205002 23 252 3.2 8.0 0.00 0.00 0.00 69 1011.1
20260508204511 23 239 3.2 8.0 0.00 0.00 0.00 69 1011.3
20260508204007 23 255 3.2 6.4 0.00 0.00 0.00 69 1011.3
20260508203506 23 234 3.2 11.3 0.00 0.00 0.00 68 1011.2
20260508203017 23 265 4.8 9.7 0.00 0.00 0.00 67 1011.2
20260508202506 23 269 4.8 14.5 0.00 0.00 0.00 67 1011.1
20260508202005 23 229 1.6 14.5 0.00 0.00 0.00 67 1011.1
20260508201523 23 240 4.8 12.9 0.00 0.00 0.00 67 1011.1
20260508201012 23 236 1.6 11.3 0.00 0.00 0.00 67 1011.0
20260508200506 23 246 4.8 14.5 0.00 0.00 0.00 65 1010.9
20260508200029 24 256 1.6 16.1 0.00 0.00 0.00 66 1011.0
20260508195507 24 261 1.6 16.1 0.00 0.00 0.00 65 1011.0
20260508195007 24 261 8.0 16.1 0.00 0.00 0.00 65 1011.1
20260508194510 25 267 6.4 16.1 0.00 0.00 0.00 64 1011.2
20260508194007 24 172 6.4 14.5 0.00 0.00 0.00 64 1011.2
20260508193506 24 252 8.0 17.7 0.00 0.00 0.00 63 1011.2
20260508193016 24 250 6.4 17.7 0.00 0.00 0.00 63 1011.3
20260508192509 25 279 4.8 14.5 0.00 0.00 0.00 64 1011.4
20260508192008 25 211 4.8 14.5 0.00 0.00 0.00 64 1011.4
20260508191520 25 236 4.8 14.5 0.00 0.00 0.00 63 1011.4
20260508191008 25 210 4.8 16.1 0.00 0.00 0.00 63 1011.5
20260508190508 25 281 4.8 16.1 0.00 0.00 0.00 62 1011.6
20260508190035 25 215 1.6 16.1 0.00 0.00 0.00 61 1011.6
20260508185508 25 231 4.8 16.1 0.00 0.00 0.00 59 1011.5
20260508185008 25 231 4.8 11.3 0.00 0.00 0.00 60 1011.6
20260508184528 25 252 3.2 14.5 0.00 0.00 0.00 59 1011.6
20260508184008 26 138 3.2 14.5 0.00 0.00 0.00 58 1011.7
20260508183509 26 155 3.2 11.3 0.00 0.00 0.00 59 1011.6
20260508183014 26 240 3.2 11.3 0.00 0.00 0.00 59 1011.7
20260508182504 26 200 3.2 9.7 0.00 0.00 0.00 58 1011.7
20260508182006 26 168 4.8 8.0 0.00 0.00 0.00 59 1011.9
20260508181518 26 271 3.2 9.7 0.00 0.00 0.00 59 1012.0
20260508181009 26 157 3.2 9.7 0.00 0.00 0.00 59 1012.1
20260508180509 25 306 3.2 11.3 0.00 0.00 0.00 59 1012.2
20260508180025 26 207 3.2 11.3 0.00 0.00 0.00 61 1012.3
20260508175511 26 207 3.2 9.7 0.00 0.00 0.00 59 1012.5
20260508175010 25 161 3.2 17.7 0.00 0.00 0.00 58 1012.6
20260508174540 25 188 3.2 17.7 0.00 0.00 0.00 60 1012.7
20260508174008 25 234 3.2 11.3 0.00 0.00 0.00 57 1012.8
20260508173509 25 184 1.6 12.9 0.00 0.00 0.00 59 1012.8
20260508173031 25 190 3.2 12.9 0.00 0.00 0.00 58 1012.8
20260508172516 25 70 3.2 9.7 0.00 0.00 0.00 61 1012.9
20260508172006 25 229 4.8 11.3 0.00 0.00 0.00 61 1013.0
20260508171514 24 118 3.2 11.3 0.00 0.00 0.00 61 1013.1
20260508171007 24 165 3.2 9.7 0.00 0.00 0.00 62 1013.4
20260508170506 23 180 3.2 9.7 0.00 0.00 0.00 62 1013.5
20260508170022 23 240 3.2 9.7 0.00 0.00 0.00 64 1013.6
20260508165507 23 153 3.2 9.7 0.00 0.00 0.00 65 1013.7
20260508165009 23 258 3.2 9.7 0.00 0.00 0.00 63 1013.8
20260508164523 23 217 1.6 11.3 0.00 0.00 0.00 64 1013.9
20260508164007 23 104 3.2 12.9 0.00 0.00 0.00 64 1014.0
20260508163511 22 167 3.2 12.9 0.00 0.00 0.00 65 1014.1
20260508163040 22 245 3.2 11.3 0.00 0.00 0.00 66 1014.2
20260508162511 22 263 4.8 12.9 0.00 0.00 0.00 65 1014.3
20260508162011 22 204 1.6 12.9 0.00 0.00 0.00 65 1014.3
20260508161528 22 232 4.8 11.3 0.00 0.00 0.00 64 1014.3
20260508161012 22 229 1.6 9.7 0.00 0.00 0.00 66 1014.3
20260508160506 21 198 3.2 9.7 0.00 0.00 0.00 65 1014.3
20260508160024 22 169 1.6 6.4 0.00 0.00 0.00 68 1014.4
20260508155506 21 188 1.6 9.7 0.00 0.00 0.00 70 1014.5
20260508155007 21 193 1.6 9.7 0.00 0.00 0.00 67 1014.6
20260508154529 21 270 4.8 9.7 0.00 0.00 0.00 67 1014.6
20260508154015 20 201 1.6 9.7 0.00 0.00 0.00 68 1014.6
20260508153509 20 233 3.2 9.7 0.00 0.00 0.00 68 1014.7
20260508153029 20 205 3.2 9.7 0.00 0.00 0.00 67 1014.8
20260508152510 21 205 4.8 9.7 0.00 0.00 0.00 67 1014.7
20260508152013 21 231 3.2 11.3 0.00 0.00 0.00 67 1014.7
20260508151533 21 243 3.2 12.9 0.00 0.00 0.00 67 1014.7
20260508151007 21 245 3.2 12.9 0.00 0.00 0.00 67 1014.7
20260508150512 21 169 3.2 8.0 0.00 0.00 0.00 69 1014.8
20260508150031 20 242 3.2 8.0 0.00 0.00 0.00 69 1014.7
20260508145510 20 176 3.2 8.0 0.00 0.00 0.00 69 1014.7
20260508145007 20 120 1.6 11.3 0.00 0.00 0.00 70 1014.6
20260508144519 20 61 1.6 11.3 0.00 0.00 0.00 69 1014.5
20260508144008 20 182 1.6 11.3 0.00 0.00 0.00 70 1014.5
20260508143508 20 205 3.2 11.3 0.00 0.00 0.00 71 1014.6
20260508143022 20 186 3.2 9.7 0.00 0.00 0.00 71 1014.7
20260508142507 20 201 3.2 9.7 0.00 0.00 0.00 70 1014.9
20260508142009 20 153 3.2 9.7 0.00 0.00 0.00 72 1014.9
20260508141528 19 152 3.2 11.3 0.00 0.00 0.00 73 1015.1
20260508141011 18 133 4.8 11.3 0.00 0.00 0.00 73 1015.1
20260508140514 18 209 1.6 14.5 0.00 0.00 0.00 74 1015.1
20260508140030 18 247 3.2 14.5 0.00 0.00 0.00 75 1015.3
20260508135512 18 203 1.6 14.5 0.00 0.00 0.00 76 1015.2
20260508135013 18 190 4.8 14.5 0.00 0.00 0.00 76 1014.9
20260508134534 17 151 3.2 9.7 0.00 0.00 0.00 78 1015.0
20260508134008 17 113 3.2 9.7 0.00 0.00 0.00 78 1014.9
20260508133509 17 263 3.2 8.0 0.00 0.00 0.00 79 1014.9
20260508133024 17 107 3.2 6.4 0.00 0.00 0.00 80 1015.0
20260508132508 16 158 1.6 6.4 0.00 0.00 0.00 82 1015.1
20260508132007 16 155 3.2 6.4 0.00 0.00 0.00 83 1015.2
20260508131527 16 192 1.6 6.4 0.00 0.00 0.00 85 1015.2
20260508131011 16 196 1.6 6.4 0.00 0.00 0.00 87 1015.3
20260508130508 15 182 0.0 3.2 0.00 0.00 0.00 88 1015.5
20260508130026 15 162 0.0 3.2 0.00 0.00 0.00 88 1015.5
20260508125511 15 162 0.0 3.2 0.00 0.00 0.00 88 1015.4
20260508125011 15 162 0.0 3.2 0.00 0.00 0.00 88 1015.5
20260508124530 15 162 0.0 3.2 0.00 0.00 0.00 89 1015.4
20260508124011 15 162 0.0 3.2 0.00 0.00 0.00 89 1015.3
20260508123508 15 162 0.0 3.2 0.00 0.00 0.00 89 1015.0
20260508123032 15 119 0.0 3.2 0.00 0.00 0.00 89 1015.0
20260508122508 15 119 0.0 3.2 0.00 0.00 0.00 89 1015.2
20260508122007 15 119 0.0 0.0 0.00 0.00 0.00 89 1015.3
20260508121524 15 119 0.0 1.6 0.00 0.00 0.00 90 1015.4
20260508121003 15 119 0.0 3.2 0.00 0.00 0.00 90 1015.4
20260508120502 15 119 0.0 3.2 0.00 0.00 0.00 89 1015.2
20260508120009 15 119 0.0 0.0 0.00 0.00 0.00 89 1015.3
20260508115505 15 119 0.0 0.0 0.00 0.00 0.00 89 1015.3
20260508115005 15 119 0.0 0.0 0.00 0.00 0.00 89 1015.4
20260508114515 15 119 0.0 0.0 0.00 0.00 0.00 89 1015.3
20260508114007 15 119 0.0 3.2 0.00 0.00 0.00 89 1015.6
20260508113508 15 119 0.0 3.2 0.00 0.00 0.00 89 1015.7
20260508113022 15 119 0.0 3.2 0.00 0.00 0.00 89 1015.6
20260508112508 15 119 0.0 3.2 0.00 0.00 0.00 89 1015.7
20260508112009 15 102 0.0 3.2 0.00 0.00 0.00 89 1016.0
20260508111525 15 102 0.0 3.2 0.00 0.00 0.00 89 1016.2
20260508111011 15 102 0.0 3.2 0.00 0.00 0.00 89 1016.3
20260508110507 14 102 0.0 3.2 0.00 0.00 0.00 88 1016.0
20260508110031 14 113 0.0 3.2 0.00 0.00 0.00 88 1015.5
20260508105503 14 113 0.0 0.0 0.00 0.00 0.00 88 1015.1
20260508105003 14 113 0.0 0.0 0.00 0.00 0.00 88 1015.0
20260508104510 14 113 0.0 3.2 0.00 0.00 0.00 88 1014.8
20260508104005 14 113 0.0 3.2 0.00 0.00 0.00 88 1014.5
20260508103507 14 113 0.0 3.2 0.00 0.00 0.00 88 1014.3
20260508103017 14 147 0.0 3.2 0.00 0.00 0.00 88 1014.2
20260508102510 15 162 0.0 3.2 0.00 0.00 0.00 88 1014.1
20260508102007 15 123 0.0 3.2 0.00 0.00 0.00 87 1014.1